Weather History for Glencoe, MN

Change the Weather History Date:

Monday, May 26, 2014

  Actual Average (KHCD) Record (KHCD)
Temperature  
Mean Temperature 73 °F -  
Max Temperature 82 °F 71 °F 92 °F (1966)
Min Temperature 64 °F 51 °F 36 °F (1961)
Cooling Degree Days 8    
Growing Degree Days 23 (Base 50)    
Moisture  
Dew Point 61 °F    
Average Humidity 72    
Maximum Humidity 90    
Minimum Humidity 42    
Precipitation  
Precipitation 0.07 in - - ()
Sea Level Pressure  
Sea Level Pressure 29.90 in    
Wind  
Wind Speed 4 mph (SSW)    
Max Wind Speed 20 mph    
Max Gust Speed 24 mph    
Visibility 9 miles    
Events Rain , Thunderstorm    
Averages and records for this station are not official NWS values.
T = Trace of Precipitation, MM = Missing Value Source: NWS Daily Summary

Daily Weather History Graph

Daily Weather History Graph

Search for Another Location

Airport:

Trip Planner

Search our weather history database for the weather conditions in past years. The results will help you decide how hot, cold, wet, or windy it might be!

Date:

Astronomy

May. 26, 2014 Rise Set
Actual Time 5:37 AM CDT 8:49 PM CDT
Civil Twilight 5:02 AM CDT 9:25 PM CDT
Nautical Twilight 4:16 AM CDT 10:11 PM CDT
Astronomical Twilight 3:20 AM CDT 11:07 PM CDT
Moon 4:26 AM CDT (5/26) 6:47 PM CDT (5/26)
Length of Visible Light 16h 22m
Length of Day
15h 12m
Waning Crescent, 5% of the Moon is Illuminated
May 26
Waning Crescent
May 28
New
Jun 5
First Quarter
Jun 12
Full
Jun 19
Last Quarter

Hourly Weather History & Observations

Time (CDT) Temp. Heat Index Dew Point Humidity Pressure Visibility Wind Dir Wind Speed Gust Speed Precip Events Conditions
12:14 AM 70.0 °F - 59.9 °F 70% 29.90 in 10.0 mi Calm Calm - N/A   Clear
12:34 AM 69.8 °F - 59.9 °F 71% 29.90 in 10.0 mi South 3.5 mph - N/A   Clear
12:54 AM 69.6 °F - 60.1 °F 72% 29.90 in 10.0 mi South 8.1 mph - N/A   Clear
1:14 AM 69.3 °F - 60.1 °F 72% 29.90 in 10.0 mi South 6.9 mph - N/A   Clear
1:34 AM 69.1 °F - 60.3 °F 73% 29.90 in 10.0 mi South 6.9 mph - N/A   Clear
1:54 AM 68.9 °F - 60.4 °F 74% 29.90 in 10.0 mi South 5.8 mph - N/A   Clear
2:14 AM 68.5 °F - 60.4 °F 75% 29.90 in 10.0 mi South 5.8 mph - N/A   Clear
2:34 AM 68.4 °F - 60.4 °F 76% 29.90 in 10.0 mi South 4.6 mph - N/A   Clear
2:54 AM 67.5 °F - 60.3 °F 78% 29.90 in 10.0 mi Calm Calm - N/A   Clear
3:14 AM 66.7 °F - 60.1 °F 79% 29.90 in 10.0 mi Calm Calm - N/A   Clear
3:34 AM 65.7 °F - 59.7 °F 81% 29.90 in 10.0 mi Calm Calm - N/A   Clear
3:54 AM 65.7 °F - 59.9 °F 82% 29.89 in 10.0 mi Calm Calm - N/A   Clear
4:14 AM 65.5 °F - 59.9 °F 82% 29.89 in 10.0 mi Calm Calm - N/A   Clear
4:34 AM 65.5 °F - 59.9 °F 82% 29.90 in 10.0 mi South 3.5 mph - N/A   Clear
4:54 AM 64.8 °F - 59.7 °F 84% 29.90 in 7.0 mi South 3.5 mph - N/A   Clear
5:14 AM 65.3 °F - 60.1 °F 83% 29.90 in 10.0 mi South 3.5 mph - N/A   Clear
5:34 AM 65.1 °F - 59.9 °F 83% 29.90 in 10.0 mi Calm Calm - N/A   Clear
5:54 AM 65.3 °F - 59.9 °F 83% 29.90 in 7.0 mi SSW 3.5 mph - N/A   Clear
6:14 AM 64.4 °F - 59.2 °F 83% 29.91 in 7.0 mi Calm Calm - N/A   Clear
6:35 AM 64.9 °F - 59.9 °F 84% 29.92 in 7.0 mi Calm Calm - N/A   Clear
6:54 AM 65.3 °F - 59.9 °F 83% 29.92 in 7.0 mi South 4.6 mph - N/A   Clear
7:14 AM 66.2 °F - 60.3 °F 81% 29.92 in 10.0 mi South 5.8 mph - N/A   Clear
7:35 AM 67.5 °F - 61.0 °F 80% 29.92 in 10.0 mi South 6.9 mph - N/A   Clear
7:54 AM 68.7 °F - 60.8 °F 76% 29.92 in 10.0 mi SSW 3.5 mph - N/A   Clear
8:14 AM 70.3 °F - 61.3 °F 73% 29.91 in 10.0 mi SSW 3.5 mph - N/A   Clear
8:35 AM 71.6 °F - 61.3 °F 70% 29.92 in 10.0 mi SSW 4.6 mph - N/A   Clear
8:55 AM 72.9 °F - 61.7 °F 68% 29.92 in 10.0 mi SSW 4.6 mph - N/A   Clear
9:14 AM 74.5 °F - 62.2 °F 66% 29.92 in 10.0 mi South 4.6 mph - N/A   Clear
9:34 AM 76.1 °F - 62.1 °F 62% 29.92 in 10.0 mi Calm Calm - N/A   Clear
9:54 AM 76.3 °F - 61.9 °F 61% 29.93 in 10.0 mi South 4.6 mph - N/A   Clear
10:14 AM 77.2 °F - 61.2 °F 58% 29.92 in 10.0 mi SSE 5.8 mph - N/A   Clear
10:35 AM 77.4 °F - 61.7 °F 58% 29.92 in 10.0 mi South 4.6 mph - N/A   Clear
10:54 AM 76.8 °F - 61.5 °F 59% 29.92 in 10.0 mi South 6.9 mph - N/A   Clear
11:35 AM 77.4 °F - 61.2 °F 57% 29.92 in 10.0 mi South 9.2 mph - N/A   Clear
12:14 PM 77.5 °F - 61.5 °F 58% 29.92 in 10.0 mi South 8.1 mph - N/A   Clear
12:35 PM 78.3 °F - 61.5 °F 56% 29.92 in 10.0 mi South 6.9 mph - N/A   Clear
12:54 PM 79.0 °F - 61.2 °F 54% 29.91 in 10.0 mi South 8.1 mph - N/A   Clear
1:14 PM 80.1 °F 81.1 °F 61.3 °F 53% 29.91 in 10.0 mi South 4.6 mph - N/A   Clear
1:35 PM 80.2 °F 81.2 °F 61.0 °F 52% 29.91 in 10.0 mi South 5.8 mph - N/A   Mostly Cloudy
1:54 PM 79.9 °F - 60.6 °F 52% 29.90 in 10.0 mi SSE 5.8 mph - N/A   Mostly Cloudy
2:14 PM 80.2 °F 81.1 °F 60.6 °F 51% 29.90 in 10.0 mi SSW 8.1 mph - N/A   Scattered Clouds
2:34 PM 82.0 °F 82.4 °F 60.3 °F 47% 29.88 in 10.0 mi SSW 10.4 mph 16.1 mph N/A   Clear
2:54 PM 81.9 °F 82.3 °F 60.6 °F 48% 29.86 in 10.0 mi South 10.4 mph - N/A   Clear
3:14 PM 82.6 °F 82.8 °F 59.9 °F 46% 29.87 in 10.0 mi SSW 6.9 mph 16.1 mph N/A   Scattered Clouds
3:34 PM 82.6 °F 82.6 °F 59.0 °F 45% 29.87 in 10.0 mi South 8.1 mph - N/A   Scattered Clouds
3:54 PM 82.4 °F 82.5 °F 58.8 °F 45% 29.87 in 10.0 mi SSW 5.8 mph 17.3 mph N/A   Mostly Cloudy
4:14 PM 82.4 °F 82.2 °F 58.1 °F 43% 29.86 in 10.0 mi South 9.2 mph - N/A   Overcast
4:34 PM 82.6 °F 82.2 °F 57.2 °F 42% 29.85 in 7.0 mi WSW 6.9 mph - N/A Thunderstorm Overcast
4:54 PM 79.7 °F - 58.8 °F 49% 29.87 in 10.0 mi West 19.6 mph 24.2 mph N/A   Overcast
5:14 PM 76.3 °F - 63.5 °F 64% 29.88 in 10.0 mi WNW 17.3 mph 23.0 mph N/A   Mostly Cloudy
5:34 PM 72.7 °F - 63.5 °F 73% 29.88 in 10.0 mi NW 15.0 mph - N/A   Overcast
5:54 PM 72.0 °F - 64.8 °F 78% 29.89 in 10.0 mi NW 9.2 mph - N/A Rain , Thunderstorm Light Thunderstorms and Rain
6:14 PM 70.7 °F - 65.3 °F 83% 29.90 in 5.0 mi NW 8.1 mph - 0.01 in Rain Light Rain
6:34 PM 70.2 °F - 65.3 °F 85% 29.90 in 5.0 mi North 5.8 mph - 0.01 in Rain Rain
6:54 PM 69.8 °F - 65.3 °F 86% 29.90 in 4.0 mi North 8.1 mph - 0.05 in Rain Heavy Rain
7:14 PM 68.0 °F - 63.0 °F 84% 29.90 in 5.0 mi North 9.2 mph - 0.02 in Rain Light Rain
7:35 PM 68.4 °F - 64.0 °F 86% 29.89 in 7.0 mi North 8.1 mph - 0.02 in   Mostly Cloudy
7:54 PM 68.4 °F - 63.7 °F 85% 29.89 in 10.0 mi North 5.8 mph - 0.02 in   Overcast
8:14 PM 68.0 °F - 63.5 °F 85% 29.89 in 10.0 mi North 5.8 mph - N/A   Overcast
8:35 PM 67.8 °F - 63.0 °F 84% 29.88 in 10.0 mi NNE 3.5 mph - N/A   Mostly Cloudy
8:54 PM 67.6 °F - 62.6 °F 84% 29.88 in 10.0 mi Calm Calm - N/A   Overcast
9:14 PM 68.0 °F - 63.3 °F 85% 29.89 in 10.0 mi WNW 4.6 mph - N/A Rain Light Rain
9:34 PM 68.0 °F - 63.5 °F 85% 29.89 in 10.0 mi Calm Calm - N/A   Scattered Clouds
9:54 PM 67.3 °F - 63.5 °F 88% 29.90 in 10.0 mi Calm Calm - N/A   Clear
10:14 PM 67.5 °F - 63.5 °F 87% 29.91 in 10.0 mi SW 4.6 mph - N/A   Mostly Cloudy
10:54 PM 67.1 °F - 63.1 °F 87% 29.90 in 10.0 mi Calm Calm - N/A   Overcast
11:14 PM 66.2 °F - 63.0 °F 89% 29.91 in 2.5 mi Calm Calm - N/A   Mostly Cloudy
11:34 PM 66.2 °F - 63.1 °F 90% 29.90 in 7.0 mi Calm Calm - N/A   Overcast
11:54 PM 66.6 °F - 63.5 °F 90% 29.91 in 5.0 mi Calm Calm - N/A   Overcast